Simultaneous Nadir Overpasses (SNOs) Predictions

Prediction of SNOs between TERRA and METOP-C Satellite Orbit:

Table of predicted SNOs for the next 14.0 days since TLE Epoch: 7/27/2024
Index Date (TERRA) Time (TERRA) Lat,Lon (TERRA) SZA (TERRA ) Date (METOP-C) Time (METOP-C) Lat,Lon (METOP-C) SZA (METOP-C ) Distance(km) Time Diff (sec)
1 07/29/2024 01:02:02 75.55, 163.67 56.82 07/29/2024 01:01:14 75.54, 163.62 56.81 1.54 48
2 07/29/2024 01:51:02 -76.60, -25.49 122.14 07/29/2024 01:51:33 -76.61, -25.39 122.13 2.61 31
3 07/31/2024 15:32:33 75.37, -54.49 57.28 07/31/2024 15:31:38 75.36, -54.51 57.28 0.82 55
4 07/31/2024 16:21:38 -76.18, 115.51 121.93 07/31/2024 16:22:03 -76.16, 115.41 121.94 3.04 25
5 08/03/2024 06:03:00 75.35, 87.82 57.93 08/03/2024 06:01:58 75.36, 87.90 57.95 2.82 62
6 08/03/2024 06:52:05 -76.16,-102.19 121.27 08/03/2024 06:52:23 -76.16,-102.18 121.27 0.40 18
7 08/05/2024 20:33:37 74.79,-131.28 58.09 08/05/2024 20:32:30 74.77,-131.37 58.09 2.79 67
8 08/05/2024 21:22:35 -75.96, 39.56 120.76 08/05/2024 21:22:47 -75.96, 39.58 120.76 0.38 12
9 08/08/2024 11:04:02 74.75, 10.98 58.79 08/08/2024 11:02:49 74.75, 11.00 58.80 0.60 73



Historial Predications of SNOs between TERRA and METOP-C
